User: anonymous   Login
Location: Vancouver
(49.2500°N, 123.1330°W)
Time: 09:55:14
(UTC-07:00)
Language:

BREEZE-M DEB (TANK) - Orbit

View from above orbital plane
View from above orbital plane
View from above satellite
View from above satellite

Ground track
Ground track

The orbit data is extracted from the following two-line orbital elements,

1 27821U 03024B   17083.43438730 +.00003434 +00000-0 +34710-3 0  9992
2 27821 049.6120 350.8060 4943974 324.9723 010.8064 05.75323360275575
Epoch (UTC): 24 March 2017 10:25:31
Eccentricity: 0.4943974
inclination: 49.6120°
perigee height: 273 km
apogee height: 13282 km
right ascension of ascending node: 350.8060°
argument of perigee: 324.9723°
revolutions per day: 5.75323360
mean anomaly at epoch: 10.8064°
orbit number at epoch: 27557

The dashed part of the orbit path shows where the satellite is in the earth's shadow,  

DLR